Time,TemperatureF,DewpointF,PressureIn,WindDirection,WindDirectionDegrees,WindSpeedMPH,WindSpeedGustMPH,Humidity,HourlyPrecipIn,Conditions,Clouds,dailyrainin,SolarRadiationWatts/m^2,SoftwareType,DateUTC
2013-07-12 00:02:00,56.0,18.0,-100.00,SW,233,6.0,11.0,22,0.00,,,0.00,0.000000,,2013-07-12 07:02:00,
2013-07-12 00:11:00,56.0,18.0,-100.00,SW,233,6.0,11.0,22,0.00,,,0.00,0.000000,,2013-07-12 07:11:00,
2013-07-12 00:43:00,54.0,18.0,-100.00,SSE,161,5.0,11.0,24,0.00,,,0.00,0.000000,,2013-07-12 07:43:00,
2013-07-12 00:52:00,54.0,18.0,-100.00,SSE,161,5.0,11.0,24,0.00,,,0.00,0.000000,,2013-07-12 07:52:00,
2013-07-12 01:01:00,54.0,18.0,-100.00,SSE,161,5.0,11.0,24,0.00,,,0.00,0.000000,,2013-07-12 08:01:00,
2013-07-12 01:11:00,54.0,18.0,-100.00,SSE,161,5.0,11.0,24,0.00,,,0.00,0.000000,,2013-07-12 08:11:00,
2013-07-12 01:42:00,54.0,15.0,-100.00,SSW,211,8.0,10.0,21,0.00,,,0.00,0.000000,,2013-07-12 08:42:00,
2013-07-12 01:53:00,54.0,15.0,-100.00,SSW,211,8.0,10.0,21,0.00,,,0.00,0.000000,,2013-07-12 08:53:00,
2013-07-12 02:02:00,54.0,15.0,-100.00,SSW,211,8.0,10.0,21,0.00,,,0.00,0.000000,,2013-07-12 09:02:00,
2013-07-12 02:12:00,54.0,15.0,-100.00,SSW,211,8.0,10.0,21,0.00,,,0.00,0.000000,,2013-07-12 09:12:00,
2013-07-12 02:43:00,52.0,13.0,-100.00,SSW,207,5.0,11.0,21,0.00,,,0.00,0.000000,,2013-07-12 09:43:00,
2013-07-12 02:52:00,52.0,13.0,-100.00,SSW,207,5.0,11.0,21,0.00,,,0.00,0.000000,,2013-07-12 09:52:00,
2013-07-12 03:01:00,52.0,13.0,-100.00,SSW,207,5.0,11.0,21,0.00,,,0.00,0.000000,,2013-07-12 10:01:00,
2013-07-12 03:11:00,52.0,13.0,-100.00,SSW,207,5.0,11.0,21,0.00,,,0.00,0.000000,,2013-07-12 10:11:00,
2013-07-12 03:42:00,51.0,11.0,-100.00,SSE,166,3.0,5.0,20,0.00,,,0.00,0.000000,,2013-07-12 10:42:00,
2013-07-12 03:52:00,51.0,11.0,-100.00,SSE,166,3.0,5.0,20,0.00,,,0.00,0.000000,,2013-07-12 10:52:00,
2013-07-12 04:02:00,51.0,11.0,-100.00,SSE,166,3.0,5.0,20,0.00,,,0.00,0.000000,,2013-07-12 11:02:00,
2013-07-12 04:11:00,51.0,11.0,-100.00,SSE,166,3.0,5.0,20,0.00,,,0.00,0.000000,,2013-07-12 11:11:00,
2013-07-12 04:43:00,50.0,11.0,-100.00,SSE,152,4.0,6.0,20,0.00,,,0.00,0.000000,,2013-07-12 11:43:00,
2013-07-12 04:53:00,50.0,11.0,-100.00,SSE,152,4.0,6.0,20,0.00,,,0.00,0.000000,,2013-07-12 11:53:00,
2013-07-12 05:01:00,50.0,11.0,-100.00,SSE,152,4.0,6.0,20,0.00,,,0.00,0.000000,,2013-07-12 12:01:00,
2013-07-12 05:11:00,50.0,11.0,-100.00,SSE,152,4.0,6.0,20,0.00,,,0.00,0.000000,,2013-07-12 12:11:00,
2013-07-12 05:43:00,50.0,13.0,-100.00,SSE,158,3.0,5.0,22,0.00,,,0.00,0.000000,,2013-07-12 12:43:00,
2013-07-12 05:52:00,50.0,13.0,-100.00,SSE,158,3.0,5.0,22,0.00,,,0.00,0.000000,,2013-07-12 12:52:00,
2013-07-12 06:01:00,50.0,13.0,-100.00,SSE,158,3.0,5.0,22,0.00,,,0.00,0.000000,,2013-07-12 13:01:00,
2013-07-12 06:11:00,50.0,13.0,-100.00,SSE,158,3.0,5.0,22,0.00,,,0.00,0.000000,,2013-07-12 13:11:00,
2013-07-12 07:32:00,54.0,15.0,-100.00,ESE,117,3.0,6.0,21,0.00,,,0.00,178.000000,,2013-07-12 14:32:00,
2013-07-12 08:01:00,54.0,15.0,-100.00,ESE,117,3.0,6.0,21,0.00,,,0.00,178.000000,,2013-07-12 15:01:00,
2013-07-12 08:11:00,54.0,15.0,-100.00,ESE,117,3.0,6.0,21,0.00,,,0.00,178.000000,,2013-07-12 15:11:00,
2013-07-12 08:43:00,58.0,25.0,-100.00,WNW,301,4.0,5.0,28,0.00,,,0.00,384.000000,,2013-07-12 15:43:00,
2013-07-12 08:53:00,58.0,25.0,-100.00,WNW,301,4.0,5.0,28,0.00,,,0.00,384.000000,,2013-07-12 15:53:00,
2013-07-12 09:01:00,58.0,25.0,-100.00,WNW,301,4.0,5.0,28,0.00,,,0.00,384.000000,,2013-07-12 16:01:00,
2013-07-12 09:11:00,58.0,25.0,-100.00,WNW,301,4.0,5.0,28,0.00,,,0.00,384.000000,,2013-07-12 16:11:00,
2013-07-12 09:43:00,61.0,25.0,-100.00,West,281,4.0,7.0,25,0.00,,,0.00,598.000000,,2013-07-12 16:43:00,
2013-07-12 09:58:00,61.0,25.0,-100.00,West,281,4.0,7.0,25,0.00,,,0.00,598.000000,,2013-07-12 16:58:00,
2013-07-12 10:03:00,61.0,25.0,-100.00,West,281,4.0,7.0,25,0.00,,,0.00,598.000000,,2013-07-12 17:03:00,
2013-07-12 10:12:00,61.0,25.0,-100.00,West,281,4.0,7.0,25,0.00,,,0.00,598.000000,,2013-07-12 17:12:00,
2013-07-12 10:40:00,66.0,30.0,-100.00,NNW,338,8.0,13.0,26,0.00,,,0.00,794.000000,,2013-07-12 17:40:00,
2013-07-12 10:55:00,66.0,30.0,-100.00,NNW,338,8.0,13.0,26,0.00,,,0.00,794.000000,,2013-07-12 17:55:00,
2013-07-12 11:03:00,66.0,30.0,-100.00,NNW,338,8.0,13.0,26,0.00,,,0.00,794.000000,,2013-07-12 18:03:00,
2013-07-12 11:12:00,66.0,30.0,-100.00,NNW,338,8.0,13.0,26,0.00,,,0.00,794.000000,,2013-07-12 18:12:00,
2013-07-12 11:50:00,67.0,21.0,-100.00,NW,305,7.0,15.0,17,0.00,,,0.00,956.000000,,2013-07-12 18:50:00,
2013-07-12 11:56:00,67.0,21.0,-100.00,NW,305,7.0,15.0,17,0.00,,,0.00,956.000000,,2013-07-12 18:56:00,
2013-07-12 12:03:00,67.0,21.0,-100.00,NW,305,7.0,15.0,17,0.00,,,0.00,956.000000,,2013-07-12 19:03:00,
2013-07-12 12:46:00,71.0,23.0,-100.00,NW,306,10.0,17.0,16,0.00,,,-99.99,1077.000000,,2013-07-12 19:46:00,
2013-07-12 12:57:00,71.0,23.0,-100.00,NW,306,10.0,17.0,16,0.00,,,-99.99,1077.000000,,2013-07-12 19:57:00,
2013-07-12 13:12:00,71.0,23.0,-100.00,NW,306,10.0,17.0,16,0.00,,,-99.99,1077.000000,,2013-07-12 20:12:00,
2013-07-12 13:46:00,72.0,20.0,-100.00,WNW,303,7.0,20.0,14,0.00,,,0.00,1117.000000,,2013-07-12 20:46:00,
2013-07-12 13:55:00,72.0,20.0,-100.00,WNW,303,7.0,20.0,14,0.00,,,0.00,1117.000000,,2013-07-12 20:55:00,
2013-07-12 14:02:00,72.0,20.0,-100.00,WNW,303,7.0,20.0,14,0.00,,,0.00,1117.000000,,2013-07-12 21:02:00,
2013-07-12 14:12:00,72.0,20.0,-100.00,WNW,303,7.0,20.0,14,0.00,,,0.00,1117.000000,,2013-07-12 21:12:00,
2013-07-12 14:57:00,74.0,18.0,-100.00,West,271,8.0,17.0,12,0.00,,,0.00,1092.000000,,2013-07-12 21:57:00,
2013-07-12 15:02:00,74.0,18.0,-100.00,West,271,8.0,17.0,12,0.00,,,0.00,1092.000000,,2013-07-12 22:02:00,
2013-07-12 15:46:00,74.0,22.0,-100.00,WSW,257,13.0,23.0,14,0.00,,,0.00,1003.000000,,2013-07-12 22:46:00,
2013-07-12 15:54:00,74.0,22.0,-100.00,WSW,257,13.0,23.0,14,0.00,,,0.00,1003.000000,,2013-07-12 22:54:00,
2013-07-12 16:02:00,74.0,22.0,-100.00,WSW,257,13.0,23.0,14,0.00,,,0.00,1003.000000,,2013-07-12 23:02:00,
2013-07-12 16:11:00,74.0,22.0,-100.00,WSW,257,13.0,23.0,14,0.00,,,0.00,1003.000000,,2013-07-12 23:11:00,
2013-07-12 16:36:00,72.0,22.0,-100.00,West,265,13.0,24.0,15,0.00,,,0.00,854.000000,,2013-07-12 23:36:00,
2013-07-12 16:45:00,72.0,22.0,-100.00,West,265,13.0,24.0,15,0.00,,,0.00,854.000000,,2013-07-12 23:45:00,
2013-07-12 16:57:00,72.0,22.0,-100.00,West,265,13.0,24.0,15,0.00,,,0.00,854.000000,,2013-07-12 23:57:00,
2013-07-12 17:03:00,72.0,22.0,-100.00,West,265,13.0,24.0,15,0.00,,,0.00,854.000000,,2013-07-13 00:03:00,
2013-07-12 17:12:00,72.0,22.0,-100.00,West,265,13.0,24.0,15,0.00,,,0.00,854.000000,,2013-07-13 00:12:00,
2013-07-12 18:40:00,66.0,26.0,-100.00,NW,307,12.0,20.0,22,-99.99,,,0.00,161.000000,,2013-07-13 01:40:00,
2013-07-12 18:48:00,66.0,26.0,-100.00,NW,307,12.0,20.0,22,-99.99,,,0.00,161.000000,,2013-07-13 01:48:00,
2013-07-12 18:56:00,66.0,26.0,-100.00,NW,307,12.0,20.0,22,-99.99,,,0.00,161.000000,,2013-07-13 01:56:00,
2013-07-12 19:03:00,66.0,26.0,-100.00,NW,307,12.0,20.0,22,-99.99,,,0.00,161.000000,,2013-07-13 02:03:00,
2013-07-12 19:12:00,66.0,26.0,-100.00,NW,307,12.0,20.0,22,-99.99,,,0.00,161.000000,,2013-07-13 02:12:00,
2013-07-12 19:37:00,65.0,34.0,-100.00,NW,326,13.0,25.0,31,0.00,,,0.00,348.000000,,2013-07-13 02:37:00,
2013-07-12 19:48:00,65.0,34.0,-100.00,NW,326,13.0,25.0,31,0.00,,,0.00,348.000000,,2013-07-13 02:48:00,
2013-07-12 19:55:00,65.0,34.0,-100.00,NW,326,13.0,25.0,31,0.00,,,0.00,348.000000,,2013-07-13 02:55:00,
2013-07-12 20:03:00,65.0,34.0,-100.00,NW,326,13.0,25.0,31,0.00,,,0.00,348.000000,,2013-07-13 03:03:00,
2013-07-12 20:11:00,65.0,34.0,-100.00,NW,326,13.0,25.0,31,0.00,,,0.00,348.000000,,2013-07-13 03:11:00,
2013-07-12 20:46:00,60.0,33.0,-100.00,WNW,286,11.0,21.0,36,0.00,,,-99.99,108.000000,,2013-07-13 03:46:00,
2013-07-12 20:57:00,60.0,33.0,-100.00,WNW,286,11.0,21.0,36,0.00,,,-99.99,108.000000,,2013-07-13 03:57:00,
2013-07-12 21:01:00,60.0,33.0,-100.00,WNW,286,11.0,21.0,36,0.00,,,-99.99,108.000000,,2013-07-13 04:01:00,
2013-07-12 21:11:00,60.0,33.0,-100.00,WNW,286,11.0,21.0,36,0.00,,,-99.99,108.000000,,2013-07-13 04:11:00,
2013-07-12 21:44:00,57.0,32.0,-100.00,WNW,284,8.0,16.0,39,0.00,,,0.00,13.000000,,2013-07-13 04:44:00,
2013-07-12 21:52:00,57.0,32.0,-100.00,WNW,284,8.0,16.0,39,0.00,,,0.00,13.000000,,2013-07-13 04:52:00,
2013-07-12 22:01:00,57.0,32.0,-100.00,WNW,284,8.0,16.0,39,0.00,,,0.00,13.000000,,2013-07-13 05:01:00,
2013-07-12 22:11:00,57.0,32.0,-100.00,WNW,284,8.0,16.0,39,0.00,,,0.00,13.000000,,2013-07-13 05:11:00,
2013-07-12 22:42:00,54.0,29.0,-100.00,NW,317,9.0,14.0,38,0.00,,,0.00,0.000000,,2013-07-13 05:42:00,
2013-07-12 22:52:00,54.0,29.0,-100.00,NW,317,9.0,14.0,38,0.00,,,0.00,0.000000,,2013-07-13 05:52:00,
2013-07-12 23:01:00,54.0,29.0,-100.00,NW,317,9.0,14.0,38,0.00,,,0.00,0.000000,,2013-07-13 06:01:00,
2013-07-12 23:11:00,54.0,29.0,-100.00,NW,317,9.0,14.0,38,0.00,,,0.00,0.000000,,2013-07-13 06:11:00,
2013-07-12 23:43:00,53.0,29.0,-100.00,NW,320,9.0,13.0,40,0.00,,,-99.99,0.000000,,2013-07-13 06:43:00,
2013-07-12 23:52:00,53.0,29.0,-100.00,NW,320,9.0,13.0,40,0.00,,,-99.99,0.000000,,2013-07-13 06:52:00,